Location: Miles
(41.4492°N, 81.6087°W)
Time: 07:29:30
(UTC+00:00)

Transit 2A - Pass Details

Date: 18 September 2024
Orbit: 590 x 960 km, 66.7° (Epoch: 09 October)

Event Time Altitude Azimuth Distance (km) Brightness Sun altitude
Rises 22:48:40 0° 202° (SSW) 3,380 9.7 6.8°
Reaches altitude 10° 22:51:02 10° 200° (SSW) 2,498 9.0 6.4°
Maximum altitude 22:56:52 74° 117° (ESE) 955 6.5 5.3°
Drops below altitude 10° 23:03:09 10° 33° (NNE) 2,682 8.5 4.1°
Sets 23:05:46 0° 32° (NNE) 3,645 9.2 3.6°
